User: anonymous
Location: Vancouver
(49.2500°N, 123.1330°W)
Time: 17:44:47
(UTC-07:00)
Language:

Cosmos 1939 Rocket - Orbit

View from above orbital plane
View from above orbital plane
View from above satellite
View from above satellite

Ground track
Ground track

The orbit data is extracted from the following two-line orbital elements,

1 19046U 88032B   14114.75184394  .00002334  00000-0  19373-3 0  8440
2 19046 097.6535 170.2271 0033833 275.9806 083.7561 14.99322594400196
Epoch (UTC): 24 April 2014 18:02:39
Eccentricity: 0.0033833
inclination: 97.6535°
perigee height: 545 km
apogee height: 592 km
right ascension of ascending node: 170.2271°
argument of perigee: 275.9806°
revolutions per day: 14.99322594
mean anomaly at epoch: 83.7561°
orbit number at epoch: 40019

The dashed part of the orbit path shows where the satellite is in the earth's shadow,  

DLR